User: anonymous   Login
Location: Doux
(49.5045°N, 4.4321°E)
Time: 20:28:55
(UTC+00:00)
Language:

MOZ.5/SAFIR/RUBIN 5/SL-8 - Orbit

View from above orbital plane
View from above orbital plane
View from above satellite
View from above satellite

Ground track
Ground track

The orbit data is extracted from the following two-line orbital elements,

1 28898U 05043G   24197.35076636  .00001288  00000-0  26379-3 0  9995
2 28898  98.2569 325.6879 0019261  19.1374 341.0547 14.62363625620594
Epoch (UTC): 15 July 2024 08:25:06
Eccentricity: 0.0019261
inclination: 98.2569°
perigee height: 672 km
apogee height: 699 km
right ascension of ascending node: 325.6879°
argument of perigee: 19.1374°
revolutions per day: 14.62363625
mean anomaly at epoch: 341.0547°
orbit number at epoch: 62059

The dashed part of the orbit path shows where the satellite is in the earth's shadow,  

DLR